Wind_Speed
16 16 16 16 16 16 16 16 16 15 14 14 13 14 14 15 16 17 18 19 20 20 22 24 27 30 33 36 38 40 42 43 45 46 47 48 49 50 49 48 48 46 44 42 40 37 35 33 31 29 27 26 25 24 23 19 19 19 13 6 5 7 7 8 9 7 4 1 1 2 5 7 9 10 12 15 18 19 22 24 26 29 32 35 37 39 41 40
17 17 18 17 17 17 17 18 18 17 17 16 16 15 15 16 17 17 18 19 20 21 22 24 25 28 31 34 37 39 41 43 45 46 47 48 50 51 51 50 49 48 46 44 42 39 37 35 33 32 30 27 26 25 25 22 20 21 16 10 7 5 8 9 9 7 4 2 1 0 3 5 7 8 11 14 16 18 20 22 25 27 30 33 36 38 40 40
20 20 20 20 19 19 19 19 19 19 19 18 18 18 17 17 18 18 19 19 20 22 23 24 25 26 29 32 35 38 40 43 45 46 47 48 50 52 52 51 50 50 48 46 44 42 39 37 36 34 32 29 27 27 26 24 21 21 19 15 12 9 11 12 9 5 5 3 2 3 1 4 5 7 9 11 14 16 18 21 23 25 28 31 34 37 39 40
21 22 22 22 21 21 21 21 21 21 21 20 20 20 20 20 20 20 20 21 21 22 23 24 26 27 28 30 33 36 39 42 44 46 47 48 50 52 52 52 52 51 50 48 46 44 41 39 38 36 34 32 29 28 27 25 23 22 22 19 16 14 13 14 10 6 6 5 5 4 2 3 5 6 6 8 11 14 16 19 20 22 25 29 32 35 38 40
22 23 23 23 23 23 22 22 22 22 23 22 23 22 22 22 22 22 22 22 23 24 24 25 26 27 29 30 32 34 38 41 43 46 47 49 50 52 53 53 53 53 52 50 48 46 44 42 40 38 36 34 32 30 27 26 25 24 24 23 19 15 14 14 12 8 6 5 3 2 3 3 2 3 4 6 9 12 14 16 18 20 23 26 30 32 35 38
23 24 24 24 24 24 24 23 23 24 24 24 24 24 25 24 24 24 24 24 25 25 26 26 27 28 29 30 32 33 36 39 43 45 47 49 50 52 53 54 54 54 53 52 51 49 47 44 42 40 39 37 34 32 29 27 27 25 24 22 19 17 16 14 12 9 6 3 2 3 2 4 2 0 3 5 6 10 12 14 17 18 21 24 27 30 33 36
24 24 24 24 25 25 25 25 25 25 25 25 25 26 26 26 27 27 27 27 27 27 27 27 28 28 30 31 33 34 35 38 41 44 46 48 50 52 54 55 55 55 54 54 52 51 49 47 45 43 41 39 37 34 31 30 28 26 25 22 18 20 19 14 11 10 7 4 5 5 4 5 5 3 3 4 4 7 10 13 15 16 18 21 25 28 31 34
26 25 25 25 25 25 25 26 26 26 26 26 26 27 27 28 28 29 29 29 29 29 29 29 29 29 30 32 33 35 36 37 40 42 45 47 49 51 53 56 56 56 55 55 54 53 51 50 47 45 43 40 38 35 33 31 30 27 27 24 19 20 19 15 12 11 10 8 7 7 6 5 5 3 1 3 3 4 8 11 13 15 16 19 22 25 28 32
28 28 27 26 26 25 25 26 26 27 28 28 28 28 28 28 29 30 31 31 31 31 31 30 30 30 31 33 34 35 36 37 39 41 44 46 48 51 53 56 57 57 57 56 56 54 53 51 50 48 44 42 39 38 36 33 31 29 28 26 20 19 18 16 16 13 11 11 10 9 8 7 6 3 2 0 2 4 6 9 11 13 14 16 20 23 26 29
30 29 29 28 27 26 26 26 26 27 28 28 29 29 29 29 30 31 32 32 33 33 33 32 32 32 32 33 34 35 37 38 40 41 43 45 48 50 52 55 57 58 58 58 56 55 55 54 52 50 47 44 42 41 39 36 33 31 30 27 21 20 19 18 18 15 13 13 13 13 11 9 7 4 2 1 1 4 5 7 9 11 12 13 17 21 23 25
31 30 30 29 28 28 27 27 27 27 27 28 29 30 31 31 31 32 32 33 34 34 35 34 34 33 33 34 35 36 38 40 40 41 43 45 47 49 51 54 57 59 59 59 57 56 56 56 54 52 50 47 44 43 42 39 36 33 32 29 22 22 22 20 19 17 15 15 16 16 14 12 9 5 3 2 0 3 4 4 6 9 10 12 14 19 21 23
32 31 31 30 29 29 28 28 28 28 28 29 30 31 32 32 33 33 34 34 35 36 36 36 36 36 35 35 36 37 40 41 41 42 43 45 47 49 51 53 56 59 60 59 58 58 58 57 56 54 52 50 47 46 45 42 39 36 35 32 26 23 22 21 20 19 18 16 16 16 16 14 11 7 6 4 2 1 3 4 4 6 8 10 12 16 19 21
33 33 32 31 30 30 29 29 29 29 30 30 31 31 32 33 34 35 35 35 36 36 37 38 38 38 38 38 38 39 41 42 42 44 45 45 47 48 50 53 56 59 60 59 58 59 59 59 58 56 55 53 50 48 47 45 42 40 38 36 32 27 22 20 20 19 19 19 17 16 17 17 13 10 9 7 5 3 3 4 3 4 6 8 9 13 17 19
34 34 33 32 31 31 31 31 31 31 31 32 32 33 33 34 35 36 36 36 37 37 38 39 40 40 41 41 42 41 42 42 43 45 46 47 48 49 51 53 56 59 61 60 58 60 61 61 60 59 57 55 53 51 49 47 45 43 41 40 39 33 26 22 21 21 22 22 20 18 17 18 15 12 12 8 7 4 3 4 3 3 3 6 7 10 14 17
35 34 33 33 32 32 32 32 32 33 33 33 33 34 34 35 36 37 37 37 38 39 40 41 41 42 42 43 44 44 44 44 44 46 49 49 49 50 52 53 55 58 60 60 59 60 62 62 61 61 59 58 56 54 51 48 48 47 44 43 42 39 33 25 23 24 24 23 22 20 20 19 16 14 13 9 8 5 1 5 3 3 1 5 6 8 12 14
35 35 34 33 33 32 32 33 33 33 33 33 34 34 35 35 36 37 37 38 39 40 41 42 42 43 44 45 46 46 47 46 46 48 51 52 51 52 53 54 55 57 59 60 60 61 63 63 63 63 61 60 59 57 54 51 50 50 47 46 45 42 38 29 25 24 24 26 26 25 23 22 19 16 14 10 9 6 2 4 2 3 0 3 4 6 9 12
36 35 35 34 33 33 32 32 32 32 33 33 33 34 34 35 36 36 37 38 39 40 41 42 43 44 45 46 47 48 49 49 49 50 52 54 54 54 54 55 57 57 59 59 60 62 64 64 64 64 63 62 61 59 58 55 53 52 49 48 47 45 41 35 30 26 25 29 31 29 27 25 22 19 17 13 11 8 4 3 1 2 2 1 3 4 7 9
37 36 35 35 33 32 32 31 31 31 31 32 32 33 33 34 35 35 36 37 39 40 41 42 43 45 45 46 48 49 50 51 51 52 54 56 57 57 56 57 58 58 58 59 61 63 64 65 65 65 64 64 64 62 60 58 55 54 51 50 49 47 44 39 35 30 28 31 31 28 27 27 24 21 20 17 14 10 7 5 4 1 2 1 1 3 4 7
38 37 36 35 33 32 31 30 30 30 30 30 31 32 32 33 34 34 35 37 38 39 41 42 44 46 46 47 49 50 52 53 53 54 55 57 59 59 59 59 59 59 59 59 62 64 65 65 65 66 66 66 66 64 62 60 59 57 54 53 52 50 47 43 39 34 30 30 29 27 27 28 25 21 21 20 16 13 10 7 6 3 2 3 2 1 2 5
38 37 35 34 32 31 30 29 30 29 29 30 30 31 31 32 32 33 35 37 38 40 42 44 46 48 48 50 52 53 55 56 57 57 58 60 61 62 62 62 61 61 61 61 63 66 66 65 64 67 68 68 67 66 65 63 62 60 57 56 55 52 49 46 43 38 32 31 29 27 27 26 23 21 22 21 18 15 13 9 8 6 4 6 5 2 2 4
38 36 34 33 31 30 29 29 29 29 29 29 29 30 31 31 32 33 36 38 39 41 44 46 49 51 52 54 56 58 60 61 62 62 63 63 65 65 65 64 64 63 64 64 65 66 67 64 64 68 69 69 68 68 67 66 64 63 61 60 58 55 50 48 47 42 36 33 31 30 30 26 21 21 23 21 19 18 16 15 14 10 6 7 8 4 3 3
37 35 33 32 30 29 29 29 29 28 28 28 29 30 31 32 33 34 36 38 41 43 45 48 51 53 54 56 58 61 63 65 66 67 67 68 69 70 69 68 67 67 67 66 66 66 66 65 65 68 70 70 70 69 69 68 67 65 63 62 60 58 53 50 49 45 39 35 32 34 35 28 21 22 23 20 20 20 19 19 16 12 8 9 9 5 3 3
37 34 32 31 30 28 29 29 28 27 27 28 29 30 31 32 33 34 37 39 42 44 47 49 51 53 54 56 57 60 62 65 67 68 69 71 72 73 74 73 72 71 69 68 67 66 66 68 69 70 71 72 71 71 71 70 69 68 66 64 62 60 57 54 49 44 42 40 34 34 36 31 25 24 23 19 20 22 21 20 17 14 11 11 11 7 3 3
36 34 32 30 29 28 29 28 27 26 27 28 30 30 31 32 33 35 38 40 43 45 47 49 50 51 52 53 54 56 59 62 65 68 69 72 74 76 77 77 76 74 72 70 70 69 70 71 71 71 72 74 73 73 72 72 71 70 67 66 64 62 60 58 53 45 43 43 38 35 36 34 30 27 24 20 21 22 22 21 18 16 14 13 13 9 5 4
37 34 31 30 28 28 28 27 25 25 26 28 30 31 32 33 34 36 38 41 43 45 46 47 48 48 48 49 50 53 56 60 64 67 69 72 75 77 78 78 78 76 76 75 74 73 73 73 72 71 73 75 74 74 74 74 73 71 69 67 66 65 62 62 59 51 46 46 44 41 38 37 35 31 27 23 23 24 23 22 20 18 17 15 14 11 7 6
37 34 31 29 28 28 27 25 24 25 26 28 31 32 33 34 35 36 38 41 43 45 45 45 45 45 44 45 46 48 51 55 60 65 69 72 75 77 79 80 80 79 79 78 78 76 75 74 73 73 73 75 75 75 76 75 74 73 71 70 68 67 65 63 62 58 52 50 49 46 43 40 38 32 27 26 26 26 26 24 23 22 20 17 16 13 10 8
37 34 30 28 27 27 26 23 24 25 26 29 31 32 33 34 35 37 39 42 44 44 44 43 42 41 41 40 41 42 45 49 54 61 67 72 76 78 80 81 81 81 80 79 79 78 77 76 75 75 75 75 74 75 76 76 76 75 74 73 71 68 66 64 62 60 57 53 50 48 44 41 39 35 29 28 28 28 29 28 26 25 22 18 16 16 14 11
37 33 30 28 27 27 24 22 23 24 26 28 29 31 32 34 36 38 41 43 44 45 44 42 40 39 37 36 35 36 39 41 46 52 60 68 75 79 81 82 82 81 80 80 81 80 79 77 77 77 76 75 74 76 78 78 77 77 75 74 72 69 67 65 63 61 59 57 53 49 46 41 38 36 33 31 30 31 33 32 29 27 23 19 18 17 16 15
36 33 30 28 27 26 23 22 23 23 24 26 28 30 31 34 37 39 41 43 44 45 43 41 38 36 33 32 31 32 34 36 39 44 52 61 70 77 82 83 83 83 83 83 83 82 81 79 79 78 77 76 76 78 80 80 79 78 76 75 73 70 68 67 64 62 60 58 56 53 48 43 39 37 36 35 33 32 34 34 32 30 26 23 21 18 17 17
36 32 29 27 27 25 22 22 22 22 23 25 26 28 31 34 37 39 41 43 44 44 42 40 37 33 29 28 29 30 31 32 34 38 44 53 63 73 80 83 85 86 86 85 84 84 83 82 81 79 78 77 78 79 81 82 81 79 77 76 74 71 69 68 64 62 62 60 57 55 50 45 43 41 39 38 36 34 34 35 34 32 30 28 25 21 18 18
35 32 29 27 26 24 21 21 22 22 23 24 25 28 30 34 38 39 42 44 44 45 43 40 37 32 27 26 26 26 27 28 30 34 39 46 56 67 76 82 86 88 88 87 87 86 86 84 82 80 80 79 78 79 81 81 80 78 78 77 75 72 69 68 67 65 65 62 58 56 52 47 47 46 43 41 39 36 35 35 34 33 32 30 27 23 20 19
34 31 29 27 26 23 21 21 22 22 22 23 24 27 30 34 37 39 42 45 46 47 46 42 38 32 26 24 24 24 24 24 26 30 35 41 50 60 70 79 85 89 90 89 88 87 86 85 83 82 82 81 80 79 80 80 79 79 78 77 76 75 71 69 71 71 68 64 60 57 54 50 49 49 47 44 42 39 37 35 33 32 32 30 27 24 22 21
33 31 29 27 25 23 20 20 22 22 21 22 24 26 29 33 36 39 42 46 49 49 48 45 39 32 26 23 22 22 22 22 23 26 32 38 45 54 64 75 83 88 89 89 88 87 86 85 84 83 83 82 81 80 79 79 79 79 79 78 78 79 76 73 73 72 68 66 63 59 57 52 51 53 51 48 45 43 39 36 34 33 33 32 29 26 24 23
33 31 29 27 25 22 20 20 21 21 21 22 23 25 29 32 34 38 42 45 49 50 50 47 42 34 27 23 22 22 21 20 20 23 28 34 41 49 59 70 81 87 88 89 89 87 86 85 84 84 83 83 82 82 81 80 80 80 80 80 78 80 81 77 75 73 68 66 64 61 59 55 52 55 54 49 47 46 43 39 37 36 35 34 31 29 27 26
32 30 28 26 24 22 21 20 20 21 21 21 23 24 28 31 33 36 40 44 47 50 50 48 44 37 28 23 22 22 21 19 18 20 24 30 36 42 51 62 73 82 86 88 88 86 86 85 85 84 84 83 84 84 83 81 82 82 81 80 80 80 82 81 78 76 69 65 65 63 60 58 55 57 57 52 48 48 46 42 40 39 38 36 33 31 30 29
31 30 28 26 24 22 21 20 20 20 20 21 22 24 27 29 31 34 38 42 46 49 50 48 45 40 31 24 21 21 21 19 17 18 21 26 32 38 45 54 65 75 82 85 86 86 86 86 85 84 84 85 85 84 84 84 83 83 82 81 82 82 83 83 81 79 73 68 67 65 61 59 59 59 59 56 51 49 48 46 43 41 40 37 34 32 32 31
31 29 28 26 24 22 21 20 20 19 18 20 21 23 26 28 30 33 36 40 44 47 49 48 46 43 35 26 21 20 21 19 17 17 19 23 29 35 41 49 59 70 78 83 85 86 86 86 85 85 85 86 86 85 85 85 84 82 82 83 84 84 85 85 83 80 77 72 70 68 64 63 63 61 61 60 56 53 51 50 47 44 42 40 36 34 34 33
31 29 28 26 24 22 21 20 20 19 18 18 20 22 25 27 28 31 35 38 42 45 48 48 47 44 39 30 22 20 20 19 16 15 17 21 26 32 38 45 55 66 75 81 84 86 86 86 86 86 86 85 83 84 84 84 83 82 83 84 85 85 85 85 84 81 80 77 75 73 68 67 67 64 61 60 57 55 54 53 51 48 46 44 40 37 36 35
31 29 28 26 24 22 22 21 20 20 19 17 18 21 24 25 27 30 33 36 40 43 46 47 47 45 42 35 26 21 20 18 16 14 14 19 24 30 36 43 50 61 71 79 84 86 87 87 87 86 85 84 82 83 84 84 83 82 83 84 84 85 85 85 84 83 82 81 79 77 73 71 70 67 63 60 57 55 54 53 51 50 48 46 43 41 39 36
31 29 28 27 25 23 22 21 20 20 19 17 16 19 23 24 26 28 31 34 37 40 43 45 46 45 43 39 32 25 21 17 16 15 13 17 21 27 34 41 47 56 67 77 83 86 88 88 88 86 85 84 83 84 85 84 83 83 84 84 85 86 86 86 86 85 85 83 81 78 76 73 72 70 67 63 59 57 55 53 51 49 47 45 45 44 42 38
31 30 28 27 25 24 23 22 21 20 19 18 16 18 21 22 24 26 29 31 34 38 41 43 45 45 43 41 37 30 23 18 15 15 14 15 19 24 31 39 45 52 62 73 81 86 88 89 89 87 86 85 84 85 85 85 84 84 85 85 86 86 87 87 87 87 86 85 82 80 78 75 73 73 71 67 62 59 56 55 52 49 48 47 46 46 44 40
31 30 29 27 26 25 23 22 22 20 20 19 17 17 18 20 22 25 28 30 32 35 38 41 44 44 43 42 40 33 25 19 16 16 16 15 18 23 29 35 43 51 59 69 78 84 88 89 89 88 87 85 85 85 86 86 86 85 84 84 83 84 85 85 86 87 86 85 84 82 80 77 75 74 73 71 66 61 58 57 54 51 50 50 49 48 45 41
31 30 29 28 27 26 24 23 22 21 20 19 18 15 16 19 21 23 26 28 30 33 36 39 42 43 43 41 40 36 28 22 18 17 16 16 17 21 26 32 40 48 57 66 75 81 85 88 89 89 88 86 85 86 87 87 86 85 84 83 82 82 82 83 84 84 84 84 85 83 81 78 77 76 75 73 71 66 62 58 54 52 53 52 50 49 48 45
31 30 30 29 28 26 24 23 23 22 20 20 19 16 15 17 19 21 24 27 29 31 34 37 39 41 42 41 40 38 32 25 21 18 16 15 17 20 25 30 37 45 54 62 70 77 83 87 89 90 90 89 87 87 89 89 87 85 84 83 82 82 82 83 83 82 81 83 84 84 82 80 78 78 77 75 73 71 66 60 55 54 55 53 50 47 46 47
31 30 31 31 29 27 24 22 22 22 20 20 20 17 15 15 17 19 22 25 27 29 31 34 37 39 41 41 39 38 35 29 24 20 16 14 16 19 23 29 34 42 51 59 66 74 81 86 89 91 91 91 89 89 89 89 87 85 84 83 83 83 83 83 83 81 81 82 83 84 83 81 80 79 78 77 75 73 70 64 57 56 57 55 52 48 45 45
31 30 31 32 30 27 24 22 23 22 20 20 20 18 16 14 14 17 20 23 26 27 28 31 35 37 39 40 39 37 36 33 28 23 18 15 15 17 20 25 31 37 46 55 63 71 78 83 88 91 92 92 91 90 89 87 85 84 83 83 83 83 84 83 83 83 82 82 82 83 83 82 81 80 79 79 77 75 73 69 62 60 60 57 53 49 46 43
31 29 30 31 30 27 24 22 23 22 20 21 20 19 17 15 13 15 18 21 24 26 27 29 32 35 37 38 38 37 35 34 31 26 21 17 14 15 18 21 26 33 40 49 59 67 74 81 87 90 91 92 91 90 89 87 84 83 83 82 82 83 83 83 84 84 84 83 83 83 83 83 83 82 81 81 80 77 75 73 67 63 63 60 54 51 48 43
30 29 29 29 28 26 24 23 24 22 21 21 21 19 18 15 14 15 17 20 22 24 25 26 29 32 35 36 37 36 35 34 33 29 24 19 16 14 16 19 23 29 35 43 53 63 71 78 85 89 90 91 91 90 88 86 84 84 83 83 82 82 82 83 84 84 84 84 84 83 83 84 84 84 83 82 82 81 77 76 73 68 66 63 58 55 54 48
30 29 29 28 26 25 24 23 24 23 22 22 21 21 20 17 15 14 16 19 21 23 24 25 26 28 32 34 36 36 35 33 32 30 27 22 18 15 14 17 21 26 32 38 46 56 66 75 82 87 89 90 91 90 88 87 85 85 85 84 83 83 83 83 84 84 84 85 84 83 84 85 86 86 86 84 84 83 80 77 76 74 70 68 62 58 58 57
29 29 29 28 26 25 24 24 24 24 24 23 22 22 22 20 17 15 16 18 20 21 23 24 25 26 28 31 33 34 34 33 31 30 29 25 20 17 14 15 20 25 30 36 42 49 59 69 78 84 87 89 90 90 89 88 87 86 86 85 84 84 84 84 84 85 85 85 84 84 84 85 86 87 87 86 85 84 82 80 79 79 76 74 69 64 62 62
30 29 29 28 26 25 24 24 24 24 25 25 23 24 24 23 20 17 17 19 20 21 22 23 24 25 26 29 31 32 33 32 30 28 28 27 22 18 16 15 19 23 27 33 39 45 53 61 71 80 85 88 90 90 90 90 89 88 87 86 85 85 85 85 85 85 86 86 85 84 84 84 85 86 87 87 86 86 85 83 82 82 82 80 77 73 70 66
33 31 30 28 27 26 25 25 24 24 25 25 24 25 26 26 23 20 19 19 20 21 22 22 23 23 24 27 29 31 32 32 30 27 26 27 24 20 17 16 18 21 25 29 34 41 48 55 63 73 81 86 89 91 91 91 90 90 89 88 87 87 86 86 86 86 86 87 86 85 84 84 84 85 86 87 87 86 87 86 85 85 85 84 82 79 75 72
Wind_Direction
290 289 288 286 285 284 283 281 279 276 272 266 259 253 247 243 240 238 235 234 233 234 235 233 231 230 229 228 225 222 220 218 218 217 218 219 220 220 219 219 220 219 219 220 221 221 218 218 218 217 218 220 220 219 219 212 204 202 193 182 184 195 223 245 244 231 221 262 179 47 23 27 31 38 40 39 44 45 40 38 39 38 37 37 38 40 41 39
293 292 290 288 287 285 283 282 280 278 275 271 266 260 255 250 245 241 238 236 234 234 235 235 234 232 230 229 228 225 222 220 219 217 218 219 220 220 219 219 220 219 219 219 220 221 220 218 217 217 217 219 220 219 219 215 208 206 203 184 164 202 236 235 237 236 236 254 218 276 13 28 39 43 44 40 41 45 43 40 40 39 37 36 38 40 41 40
296 294 292 290 288 286 284 283 281 279 277 274 271 267 262 258 252 247 243 239 237 235 235 235 235 235 232 230 229 228 225 223 220 219 218 218 220 221 220 219 220 220 219 219 219 220 220 219 217 216 216 216 218 219 218 216 213 209 203 181 166 198 226 225 231 236 236 240 217 216 26 53 61 51 48 46 42 44 44 42 41 40 37 35 38 40 41 41
297 296 294 292 289 287 285 283 281 279 277 275 273 270 266 262 258 254 250 245 241 237 236 235 235 236 235 233 230 229 228 226 223 221 218 218 220 221 221 219 219 220 220 220 219 219 220 220 219 217 215 215 216 218 218 216 216 212 205 193 184 198 212 215 225 235 235 233 225 205 151 94 70 52 49 53 47 45 45 44 42 40 37 35 37 40 41 42
299 297 296 294 291 288 286 284 281 279 277 275 272 270 268 265 262 258 254 251 247 243 239 236 235 235 235 235 232 230 229 228 226 223 220 219 219 221 221 220 220 219 219 220 220 219 219 219 220 219 216 215 215 216 218 217 216 214 210 206 203 212 217 210 209 214 224 232 244 235 148 132 55 40 43 50 52 48 46 46 43 40 38 35 36 40 42 43
300 299 297 295 293 290 287 284 281 279 276 274 271 269 267 265 262 260 257 254 251 248 245 241 237 235 234 235 234 232 230 229 227 225 223 221 221 221 220 220 220 219 219 220 220 220 219 218 219 220 217 214 213 214 216 217 216 214 212 211 212 224 227 214 198 188 209 234 246 263 192 166 193 14 51 46 52 54 48 46 46 42 38 35 34 38 42 43
303 301 299 297 294 291 288 285 283 280 276 273 271 268 266 264 262 260 258 255 253 250 248 245 241 238 235 234 234 233 231 230 229 227 225 223 222 222 221 220 220 219 220 220 219 220 220 219 218 219 219 216 214 213 213 215 216 214 211 208 215 230 229 214 194 183 196 188 180 231 233 184 199 203 80 59 44 55 52 47 48 45 39 36 34 35 40 43
304 301 299 297 295 292 289 286 283 280 277 274 271 268 266 264 261 259 257 255 254 252 249 246 244 241 238 236 234 233 233 232 230 228 226 225 224 223 222 221 220 219 219 219 219 219 220 220 218 218 219 218 216 214 213 215 215 212 210 207 215 231 227 207 192 190 195 179 174 216 243 223 212 224 81 68 33 45 53 47 48 47 41 36 34 34 37 42
303 301 299 297 295 293 290 287 284 280 277 275 272 269 266 264 262 260 258 256 254 253 251 248 246 243 241 238 236 234 233 233 232 229 227 226 225 224 223 222 221 219 219 219 219 219 220 220 219 218 218 218 216 215 214 214 214 212 209 207 215 229 223 205 195 193 194 185 184 208 236 249 233 237 281 25 22 27 47 47 46 46 43 37 33 34 36 40
305 302 300 297 295 293 291 288 285 281 278 275 272 270 267 264 262 260 258 256 254 253 252 250 248 246 244 241 238 235 233 233 233 231 229 227 226 225 224 223 222 220 219 218 218 219 220 220 219 218 217 217 216 215 214 213 213 212 209 204 212 226 218 204 198 194 190 182 185 203 226 242 236 238 268 243 24 16 28 42 42 43 44 37 30 33 36 38
307 305 302 300 296 294 292 289 286 282 278 275 273 270 268 265 263 261 259 257 255 253 252 251 250 248 246 244 241 238 235 234 233 233 231 229 227 225 225 224 223 221 219 218 218 219 220 219 219 218 217 216 215 215 214 212 211 211 209 201 204 219 213 200 196 197 195 184 187 205 219 227 229 231 227 221 345 5 2 25 34 36 42 40 27 29 35 36
309 307 305 302 299 296 293 290 287 284 280 276 273 270 268 266 264 262 260 257 256 254 253 252 250 249 247 246 243 241 238 235 233 232 232 231 229 227 225 225 224 222 220 218 218 219 219 219 219 218 217 216 215 215 215 212 210 210 209 202 201 209 206 197 193 196 199 192 192 205 216 221 227 227 215 227 253 299 326 338 12 25 39 44 30 25 32 36
310 308 307 304 301 298 295 292 289 285 281 277 274 271 269 267 264 263 261 258 257 255 253 252 251 250 248 247 245 243 241 238 234 233 232 231 230 228 226 225 224 223 221 219 219 219 218 218 219 218 217 216 214 215 215 213 210 210 208 203 203 204 199 194 194 200 205 199 192 200 211 217 224 229 218 230 240 227 291 298 330 7 36 47 37 25 28 35
311 309 307 305 302 299 296 293 290 286 283 279 275 272 269 267 264 263 261 260 258 256 254 252 251 250 249 248 247 245 243 240 237 235 233 231 230 229 227 226 224 224 221 219 219 220 219 218 218 217 217 216 214 214 215 213 210 209 207 205 208 209 202 195 195 203 209 205 195 192 202 209 216 223 216 223 228 210 268 274 293 336 28 53 45 27 26 34
311 310 308 305 302 300 297 294 291 287 284 281 277 273 270 267 265 263 261 260 259 257 255 254 252 251 250 249 248 247 245 242 239 237 235 232 230 229 228 227 225 224 222 220 219 220 219 218 218 217 217 216 214 214 214 213 211 209 208 206 210 213 208 200 197 202 210 210 202 192 194 200 203 213 213 215 213 181 217 252 275 319 6 56 51 33 27 34
313 311 309 306 304 301 298 295 292 289 285 282 278 274 271 268 265 263 262 260 259 258 256 255 253 252 251 250 249 248 246 243 240 238 237 235 231 229 229 228 226 224 222 220 219 220 220 219 218 217 217 216 215 213 213 213 211 210 209 208 210 212 210 204 198 199 207 212 208 200 198 196 195 204 209 210 205 161 140 235 278 322 276 62 51 39 29 33
315 312 310 308 305 302 299 296 293 290 286 282 278 274 271 269 266 264 263 261 260 259 257 256 255 253 251 249 249 248 247 244 240 238 237 236 233 230 229 228 227 225 223 221 220 219 219 219 218 217 217 217 215 214 213 214 213 210 210 210 210 212 210 204 199 195 202 211 211 206 201 197 196 200 201 208 209 172 142 219 260 304 235 93 50 42 32 32
316 313 311 309 307 304 301 297 294 290 286 281 277 273 270 268 267 265 264 263 262 261 260 258 257 255 252 250 249 247 246 244 240 237 236 235 234 231 229 228 227 226 224 222 221 219 219 219 219 218 217 217 216 214 213 214 214 211 211 212 212 212 210 204 202 200 205 212 210 204 200 200 199 196 197 207 211 182 155 194 203 205 231 194 77 36 25 27
317 314 312 310 308 304 301 298 295 291 285 280 276 272 270 268 267 267 266 265 265 264 263 261 260 257 255 252 251 249 247 245 241 238 236 235 234 232 229 227 226 226 224 222 221 219 218 218 219 218 218 217 215 214 213 213 214 212 210 212 213 212 210 205 203 203 208 211 207 203 202 204 201 196 198 203 208 195 173 192 209 193 241 241 226 1 0 15
317 315 313 311 308 305 301 299 296 291 284 278 274 271 270 269 269 268 268 268 267 266 265 264 263 261 259 256 254 252 249 247 244 240 237 235 234 233 230 227 225 224 223 222 222 219 217 217 218 219 219 217 215 214 213 212 213 212 209 210 213 211 209 206 201 199 204 208 207 207 204 204 203 200 201 201 208 208 187 195 222 209 232 256 239 241 320 347
318 316 314 312 308 305 302 300 296 290 282 277 274 272 271 271 272 272 272 272 271 269 268 267 266 264 262 260 257 255 253 249 246 243 239 237 235 234 231 228 225 223 222 222 222 220 218 217 218 220 219 217 215 215 214 213 213 213 210 210 212 211 208 207 203 199 203 209 211 210 204 202 205 205 203 202 209 209 191 193 211 206 215 246 238 239 293 317
318 317 315 312 308 305 303 301 296 287 280 276 274 273 274 275 275 276 276 276 276 274 273 272 270 269 266 263 259 256 253 250 247 244 240 238 236 234 232 229 226 223 222 221 221 221 219 219 219 219 218 216 215 215 214 213 213 213 212 210 211 212 210 208 207 205 207 211 213 210 206 203 206 209 207 205 207 206 196 195 205 211 215 226 228 236 273 289
318 318 316 312 308 306 305 302 294 284 278 275 274 275 276 277 279 280 281 281 281 281 280 278 276 274 270 266 261 257 253 249 246 243 240 237 235 234 232 229 226 223 221 220 220 220 220 220 218 216 216 216 216 215 214 214 213 213 213 212 210 211 211 208 207 207 207 208 209 210 208 206 206 210 213 215 212 210 207 203 206 215 212 212 218 222 248 253
319 319 317 313 308 307 306 301 291 281 277 276 277 279 281 283 285 286 287 287 287 287 286 285 282 279 274 269 263 257 252 248 244 240 238 235 233 232 231 229 227 223 221 219 218 218 220 220 218 215 215 215 215 215 214 214 213 213 213 213 211 211 210 209 206 206 207 205 206 208 209 207 206 210 218 222 221 216 212 208 208 212 209 211 217 214 222 229
319 319 317 313 310 308 307 299 287 280 279 281 282 284 286 287 288 290 292 294 294 294 293 291 288 284 278 272 265 258 252 247 242 238 235 233 231 230 230 228 226 223 221 219 218 217 219 220 218 215 215 215 215 215 215 214 214 212 212 213 213 211 211 211 209 208 208 206 206 208 210 211 211 215 222 222 222 217 208 205 209 209 209 217 223 216 214 218
319 319 317 314 311 310 306 294 282 279 281 283 285 287 288 290 292 296 300 302 302 301 300 297 293 289 283 276 269 262 254 247 241 236 232 230 228 227 227 227 225 223 220 219 218 217 217 219 218 214 214 215 215 215 215 214 214 212 212 213 214 212 212 212 212 210 209 209 209 211 212 214 214 215 220 217 217 214 204 203 209 212 213 219 227 225 222 221
319 319 317 314 312 310 302 287 277 277 280 283 287 290 294 298 302 307 310 310 310 309 307 304 300 295 290 282 273 265 256 248 241 235 230 227 225 224 224 224 223 222 220 218 218 217 216 217 217 215 213 214 215 216 216 215 214 212 211 212 213 213 212 213 213 212 210 209 210 210 209 212 215 215 217 215 214 211 205 204 210 216 219 221 227 230 229 228
318 318 317 314 312 310 298 281 275 278 282 288 293 297 303 308 312 315 317 319 319 318 316 313 309 304 298 288 278 268 259 251 244 237 230 225 222 221 221 222 221 220 219 218 218 217 216 216 217 215 212 212 213 215 215 215 214 213 211 212 213 213 213 213 214 213 212 211 210 209 209 214 219 217 216 215 212 210 208 207 211 217 223 227 230 232 231 228
317 317 317 314 313 308 293 278 275 280 287 293 299 305 311 315 317 320 322 325 328 328 325 322 319 314 305 293 281 271 262 254 246 239 232 225 221 219 218 219 219 218 217 217 216 216 215 214 215 215 213 211 212 214 215 214 214 213 211 211 212 213 214 214 214 214 213 212 212 212 213 215 217 214 212 212 212 210 209 210 213 217 223 227 229 229 229 226
316 316 316 314 313 306 289 276 276 281 288 296 303 310 316 319 320 324 328 332 334 335 333 330 327 323 311 296 285 276 268 258 248 240 232 226 221 217 216 216 215 215 215 215 215 215 214 213 212 213 213 212 213 214 214 214 214 213 212 211 211 212 215 214 213 215 214 213 212 213 214 211 210 211 211 211 210 209 209 210 213 217 220 221 221 222 223 222
315 316 316 314 312 304 286 275 277 282 289 298 306 312 318 321 324 328 333 336 338 340 340 338 335 332 320 305 293 283 274 263 250 239 232 225 221 217 215 214 213 213 213 213 213 213 213 212 211 211 211 212 212 213 214 214 214 213 212 211 210 211 214 214 212 213 212 212 213 212 211 208 207 211 212 210 209 208 209 210 211 216 219 218 218 219 220 220
314 314 314 313 311 303 285 274 278 283 291 299 306 315 321 325 328 333 337 340 343 346 347 345 343 339 330 315 302 292 283 269 253 240 231 224 220 217 215 213 211 211 211 211 212 213 212 212 211 210 210 211 212 212 213 213 213 213 212 211 210 210 213 214 213 212 211 211 212 210 208 207 208 211 213 212 210 208 209 212 213 217 219 217 216 218 220 220
313 313 313 312 310 301 284 274 278 285 293 300 307 317 324 327 331 337 342 345 349 351 351 350 348 344 337 323 309 300 291 276 258 243 231 224 220 217 215 213 211 211 211 211 211 212 212 212 210 210 210 211 211 211 211 212 212 213 212 211 210 211 213 214 214 214 212 211 211 210 207 206 208 211 213 214 212 209 209 213 216 217 218 217 216 218 220 221
312 312 312 311 309 301 284 274 278 286 294 302 310 320 325 328 334 340 345 349 353 354 355 354 352 349 342 329 315 307 300 284 264 246 233 225 220 218 216 214 211 210 210 210 210 210 211 211 211 210 210 210 211 210 209 210 211 211 211 211 210 211 213 214 214 214 213 211 210 210 208 207 208 211 214 216 214 212 213 216 216 215 216 215 215 217 220 222
311 310 310 309 307 300 286 275 278 287 295 303 312 322 326 329 336 343 348 351 355 358 358 356 355 354 348 334 320 312 307 294 273 252 237 227 222 219 218 215 213 211 210 209 210 210 210 211 211 211 210 210 211 210 209 209 209 210 210 210 210 211 213 214 215 213 213 212 210 209 208 206 207 210 213 217 216 215 217 217 214 212 213 213 214 217 220 222
310 308 308 307 305 299 288 276 276 286 296 304 313 322 326 330 338 345 349 353 357 360 360 359 358 357 353 341 325 315 310 301 282 258 242 230 223 219 217 215 213 211 210 210 210 210 210 210 211 211 211 211 211 211 209 209 209 209 210 210 210 211 212 214 215 214 213 212 209 207 206 205 206 208 211 216 217 216 218 217 213 212 212 213 214 217 220 223
308 307 305 305 303 299 290 278 275 283 294 304 313 322 326 331 339 346 351 354 358 1 2 1 0 360 358 350 334 318 311 306 291 265 245 233 224 219 216 214 212 209 209 209 209 210 210 210 211 211 212 213 212 211 210 209 209 209 209 210 210 211 212 213 214 214 214 213 211 208 205 203 204 206 208 213 216 217 218 218 217 216 216 217 218 218 219 222
306 305 303 302 301 298 291 281 276 281 290 301 314 322 325 331 340 346 351 355 358 2 3 3 2 1 1 356 343 324 315 311 300 277 252 237 226 219 216 214 211 209 207 207 208 209 210 211 211 212 213 214 212 212 212 210 209 209 209 210 211 212 213 213 213 214 215 214 213 210 206 203 203 204 206 209 213 216 218 219 220 221 221 222 224 221 219 221
305 303 301 300 300 298 292 284 277 279 287 299 313 319 322 330 341 346 351 355 359 2 3 4 4 3 2 360 351 333 321 315 304 287 260 241 230 221 216 213 211 209 207 206 207 208 208 210 211 212 213 214 213 213 213 212 210 210 210 210 211 212 212 213 213 213 215 215 214 212 209 205 203 205 207 208 210 214 216 217 220 221 222 225 226 222 220 220
303 301 299 298 299 298 293 286 278 277 284 295 308 315 320 331 340 345 350 355 358 1 3 5 5 4 4 2 358 346 331 320 306 291 267 244 233 224 218 214 211 209 207 206 206 207 208 209 211 212 213 214 213 213 213 213 212 211 210 210 211 212 212 212 212 213 214 216 215 214 212 208 205 207 210 210 210 213 215 216 218 222 224 226 224 220 220 221
302 300 299 298 299 297 293 287 279 276 281 289 300 311 321 331 339 344 350 354 357 360 3 5 6 6 5 3 3 357 343 327 309 295 277 250 234 226 221 216 211 209 208 207 207 207 207 209 210 211 212 213 214 213 214 213 213 212 211 210 211 211 212 213 213 213 214 215 215 215 214 210 207 209 213 214 212 213 215 216 218 223 226 227 223 219 221 224
301 299 298 298 298 296 292 286 279 275 277 285 296 310 321 328 337 344 348 352 356 359 2 5 6 6 6 4 4 3 353 334 314 300 287 264 240 228 223 219 213 210 209 208 207 207 208 208 210 211 212 213 214 214 215 214 214 213 212 211 211 212 213 214 214 214 214 215 216 216 215 213 210 210 214 217 216 215 216 218 220 223 224 225 225 222 222 226
300 299 297 296 296 295 291 286 279 274 273 281 291 305 316 324 334 343 346 348 353 359 1 4 6 6 6 5 4 5 359 343 323 309 296 279 253 232 224 220 215 212 210 209 208 208 208 209 210 211 212 213 213 214 216 215 215 214 213 212 212 212 213 215 215 215 215 216 217 218 217 215 213 212 214 218 220 219 219 220 221 221 221 223 226 227 226 229
300 298 296 295 295 294 291 284 278 273 271 276 285 296 310 322 333 341 342 343 349 358 0 2 4 6 6 5 4 4 2 351 333 320 306 288 266 242 228 221 217 213 212 211 209 208 209 210 210 211 212 212 213 215 216 216 215 214 214 213 212 212 213 214 214 214 215 216 217 218 218 217 216 215 215 217 220 221 220 219 219 219 219 222 226 229 229 232
299 297 295 295 295 294 290 283 275 270 269 272 281 291 304 321 332 336 338 339 345 355 0 0 2 4 5 5 4 3 3 358 345 330 316 294 274 256 237 226 220 215 214 212 210 209 210 210 211 211 212 212 213 215 217 217 216 215 214 214 214 213 213 214 213 213 215 216 217 218 219 218 217 217 216 217 219 222 221 219 218 218 219 221 224 225 225 226
300 297 295 295 295 295 291 281 273 269 266 268 277 287 297 313 327 330 333 336 340 350 358 359 360 2 4 5 4 3 2 1 355 342 325 305 282 266 249 233 225 220 217 214 212 211 211 211 212 212 213 213 214 215 217 217 217 216 216 216 215 215 214 214 213 213 214 215 216 218 219 219 218 218 218 218 218 220 221 219 218 218 218 219 221 221 220 219
302 299 296 295 296 295 290 280 273 269 265 265 272 282 292 304 319 325 329 332 336 344 354 359 358 359 2 3 4 3 1 1 1 353 336 318 295 273 258 241 229 224 221 217 214 213 212 212 213 213 214 214 215 215 217 217 217 217 217 217 217 217 216 214 214 214 213 214 215 217 218 219 219 219 219 219 218 219 219 219 218 218 217 216 216 216 216 216
305 302 297 295 295 294 289 280 273 270 264 262 267 275 283 296 310 320 325 328 332 339 348 356 358 357 358 0 2 2 1 0 1 359 347 328 309 285 267 251 235 226 223 220 217 215 214 213 214 214 215 215 216 216 217 217 217 218 218 218 218 218 217 216 215 215 214 214 215 215 217 219 219 219 219 220 220 219 219 218 217 217 216 214 213 213 216 217
307 304 300 298 295 292 287 279 274 272 266 263 265 270 276 285 298 313 321 325 330 336 342 350 355 355 355 358 359 1 1 0 0 0 354 339 320 301 277 259 245 232 224 222 220 218 216 215 215 215 215 216 217 217 217 217 217 218 219 219 219 219 218 217 217 216 215 215 215 215 217 218 219 219 219 219 220 220 219 218 218 218 217 215 214 214 218 221
307 306 303 300 297 292 286 279 274 272 268 265 264 267 272 279 287 301 314 321 327 333 337 343 350 352 353 355 357 358 359 360 0 360 358 348 331 313 289 263 250 241 230 222 220 220 219 218 217 217 216 216 217 218 217 217 218 218 219 219 220 220 219 218 217 217 216 216 215 215 216 218 219 220 220 220 220 220 220 219 218 219 219 218 218 218 222 225
303 304 303 301 297 293 288 281 276 273 270 268 266 267 271 276 281 289 301 314 324 329 332 336 343 348 349 351 354 356 357 358 360 0 359 354 342 322 297 270 252 246 239 230 223 220 219 219 220 219 218 217 217 218 218 218 218 219 219 220 220 221 220 219 219 218 217 217 215 215 216 218 219 220 221 221 220 220 221 220 220 220 220 221 221 222 224 226
297 299 301 300 297 294 289 283 279 275 272 271 267 266 269 274 278 282 289 302 317 324 325 330 336 341 345 346 349 353 354 355 358 360 360 357 350 333 307 284 262 250 245 239 231 225 222 220 221 222 221 219 218 218 218 219 219 219 220 220 221 221 221 221 220 219 218 218 216 216 217 218 219 220 221 221 221 221 221 221 221 221 221 222 223 224 225 226
Height
10938 10937 10937 10936 10936 10935 10935 10934 10934 10934 10934 10934 10934 10934 10934 10934 10933 10933 10934 10934 10934 10934 10934 10934 10935 10936 10937 10939 10941 10943 10945 10947 10949 10952 10954 10956 10957 10959 10963 10966 10968 10972 10974 10978 10981 10983 10986 10989 10991 10993 10994 10996 10999 11001 11002 11004 11005 11006 11008 11009 11009 11009 11009 11009 11009 11008 11008 11008 11008 11008 11008 11008 11007 11006 11004 11003 11002 11001 11000 10998 10996 10994 10991 10989 10987 10984 10981 10979
10936 10935 10935 10934 10934 10933 10933 10932 10932 10932 10932 10931 10931 10931 10931 10931 10931 10931 10931 10931 10932 10932 10932 10932 10933 10934 10935 10936 10938 10940 10942 10943 10945 10948 10950 10953 10954 10956 10959 10963 10966 10969 10972 10975 10978 10981 10984 10986 10988 10990 10992 10995 10997 10999 11001 11003 11004 11005 11007 11008 11009 11009 11009 11009 11009 11008 11008 11008 11009 11009 11009 11009 11008 11007 11005 11004 11004 11003 11001 10999 10998 10996 10994 10992 10989 10986 10983 10980
10934 10933 10933 10932 10932 10931 10931 10930 10930 10929 10929 10929 10929 10929 10929 10929 10929 10929 10929 10929 10929 10929 10929 10930 10930 10931 10932 10933 10935 10936 10938 10940 10942 10944 10947 10949 10950 10952 10955 10959 10962 10965 10969 10972 10975 10978 10981 10984 10985 10987 10990 10993 10995 10997 10999 11002 11003 11004 11006 11008 11008 11008 11007 11007 11008 11008 11008 11008 11008 11009 11010 11009 11009 11008 11006 11005 11005 11004 11003 11001 10999 10998 10996 10995 10992 10989 10986 10983
10932 10931 10930 10930 10929 10929 10928 10928 10927 10927 10926 10926 10926 10926 10926 10926 10926 10926 10926 10926 10926 10926 10926 10927 10928 10928 10929 10930 10931 10933 10935 10936 10939 10941 10943 10945 10946 10948 10952 10956 10959 10962 10966 10969 10972 10975 10978 10981 10983 10985 10987 10991 10993 10995 10998 11000 11002 11003 11005 11006 11006 11006 11006 11006 11007 11008 11008 11008 11009 11010 11010 11010 11010 11009 11008 11007 11006 11006 11004 11002 11001 11000 10998 10997 10995 10992 10989 10986
10930 10929 10928 10927 10926 10926 10925 10925 10924 10924 10923 10923 10923 10923 10923 10923 10923 10923 10923 10923 10923 10923 10923 10924 10925 10925 10926 10927 10928 10930 10931 10933 10935 10937 10939 10941 10943 10945 10948 10952 10955 10958 10962 10965 10969 10972 10975 10978 10980 10982 10984 10988 10991 10993 10996 10999 11000 11001 11003 11004 11005 11006 11006 11006 11007 11008 11009 11009 11009 11010 11010 11011 11011 11010 11009 11008 11008 11007 11006 11004 11003 11001 11000 10999 10998 10996 10993 10989
10928 10927 10925 10924 10923 10923 10922 10922 10921 10921 10920 10920 10920 10919 10919 10919 10919 10919 10919 10919 10919 10920 10920 10921 10921 10922 10923 10924 10925 10926 10928 10929 10930 10933 10936 10938 10939 10941 10944 10947 10951 10955 10958 10961 10965 10969 10972 10974 10977 10979 10982 10985 10987 10991 10994 10996 10998 11000 11001 11003 11005 11004 11004 11005 11007 11008 11008 11009 11009 11010 11011 11011 11011 11010 11010 11009 11008 11008 11007 11006 11004 11003 11001 11001 11000 10998 10996 10993
10926 10924 10923 10922 10920 10919 10919 10918 10918 10917 10917 10916 10916 10916 10916 10916 10916 10916 10916 10916 10916 10916 10916 10917 10918 10919 10919 10920 10921 10923 10924 10925 10927 10930 10932 10934 10936 10937 10940 10943 10946 10951 10954 10958 10961 10965 10968 10971 10973 10976 10979 10982 10985 10988 10992 10994 10996 10998 11000 11003 11004 11002 11002 11004 11006 11007 11008 11008 11009 11011 11011 11011 11011 11011 11010 11009 11009 11009 11009 11008 11006 11005 11003 11002 11001 11000 10998 10995
10923 10921 10920 10919 10918 10916 10915 10915 10914 10913 10913 10913 10912 10912 10912 10912 10912 10912 10912 10912 10912 10912 10913 10913 10914 10915 10916 10917 10918 10919 10921 10922 10923 10926 10928 10930 10932 10934 10936 10938 10942 10946 10950 10953 10957 10961 10964 10967 10970 10973 10976 10980 10984 10987 10989 10991 10994 10996 10998 11001 11001 11000 11002 11003 11004 11006 11007 11007 11008 11010 11011 11011 11012 11011 11010 11010 11010 11010 11009 11008 11008 11007 11005 11004 11003 11002 11000 10998
10920 10918 10917 10916 10915 10913 10912 10911 10910 10909 10909 10908 10908 10908 10908 10908 10908 10907 10908 10908 10908 10908 10909 10910 10911 10911 10912 10913 10914 10916 10917 10918 10919 10921 10923 10925 10927 10929 10931 10934 10938 10941 10945 10949 10953 10957 10960 10964 10967 10970 10974 10978 10981 10984 10986 10989 10992 10994 10996 10999 11000 11000 11002 11003 11003 11004 11006 11007 11007 11009 11010 11011 11011 11011 11011 11010 11010 11010 11010 11009 11009 11008 11007 11006 11005 11004 11003 11001
10916 10914 10913 10912 10911 10910 10909 10907 10906 10906 10905 10904 10904 10904 10903 10903 10903 10903 10903 10903 10904 10904 10905 10906 10907 10908 10908 10909 10910 10912 10913 10914 10915 10917 10919 10921 10923 10925 10927 10930 10933 10937 10941 10945 10949 10953 10956 10959 10962 10966 10971 10974 10978 10980 10983 10986 10989 10992 10995 10998 10999 10999 11001 11002 11002 11003 11005 11006 11007 11009 11010 11010 11011 11011 11011 11011 11010 11010 11010 11010 11010 11009 11008 11008 11007 11006 11005 11003
10912 10911 10909 10908 10907 10906 10905 10903 10903 10902 10901 10900 10899 10899 10899 10899 10898 10898 10899 10899 10899 10900 10901 10901 10902 10903 10904 10905 10906 10907 10908 10910 10912 10914 10915 10917 10919 10921 10923 10926 10928 10932 10936 10941 10945 10948 10950 10954 10958 10963 10967 10970 10974 10977 10979 10982 10986 10989 10992 10996 10996 10996 10999 11000 11001 11002 11003 11005 11006 11008 11009 11009 11010 11010 11010 11011 11010 11010 11010 11010 11010 11010 11009 11008 11008 11007 11007 11005
10909 10907 10905 10904 10902 10901 10900 10899 10898 10897 10896 10896 10895 10894 10894 10893 10893 10893 10894 10894 10895 10895 10896 10897 10898 10898 10899 10900 10901 10902 10903 10905 10907 10909 10910 10912 10914 10917 10919 10921 10923 10926 10931 10937 10941 10942 10946 10950 10954 10959 10963 10967 10971 10973 10975 10979 10983 10985 10988 10992 10993 10994 10997 10998 10999 11000 11002 11004 11005 11006 11008 11008 11008 11009 11010 11011 11011 11011 11011 11011 11011 11010 11010 11009 11008 11008 11007 11006
10905 10903 10901 10900 10898 10897 10896 10894 10893 10892 10892 10891 10890 10890 10889 10888 10888 10888 10889 10889 10890 10890 10891 10892 10892 10893 10894 10895 10895 10897 10897 10899 10903 10904 10905 10908 10909 10912 10914 10916 10918 10921 10926 10932 10935 10938 10942 10945 10949 10954 10958 10962 10967 10969 10971 10976 10979 10982 10985 10988 10990 10992 10995 10997 10997 10998 11000 11002 11003 11005 11006 11007 11007 11009 11010 11010 11011 11011 11010 11010 11011 11011 11010 11010 11009 11009 11008 11007
10901 10899 10897 10896 10894 10892 10891 10890 10888 10887 10886 10886 10885 10885 10884 10883 10883 10883 10883 10884 10884 10885 10885 10886 10887 10888 10888 10889 10889 10891 10892 10895 10898 10899 10900 10903 10904 10906 10909 10911 10913 10916 10921 10927 10931 10934 10936 10940 10944 10949 10954 10958 10962 10964 10967 10972 10976 10978 10981 10985 10986 10989 10993 10995 10996 10997 10999 11000 11001 11002 11004 11005 11006 11007 11009 11010 11011 11010 11010 11010 11010 11011 11011 11011 11010 11010 11009 11009
10897 10895 10893 10891 10890 10888 10886 10885 10883 10882 10881 10880 10880 10879 10879 10878 10878 10878 10878 10878 10879 10879 10879 10880 10881 10882 10883 10883 10884 10885 10887 10889 10893 10894 10894 10897 10899 10901 10903 10905 10908 10912 10916 10922 10926 10928 10931 10936 10940 10944 10949 10953 10957 10960 10964 10968 10972 10975 10978 10981 10983 10986 10989 10993 10995 10996 10997 10998 10999 11000 11002 11003 11005 11006 11008 11009 11010 11010 11010 11010 11010 11011 11011 11011 11011 11010 11010 11010
10894 10891 10889 10887 10885 10884 10882 10880 10879 10877 10876 10875 10874 10874 10873 10873 10873 10873 10873 10873 10873 10873 10873 10874 10874 10876 10876 10877 10878 10879 10880 10883 10887 10888 10888 10890 10894 10896 10898 10901 10903 10906 10911 10916 10920 10923 10927 10932 10935 10939 10944 10948 10952 10956 10960 10964 10968 10971 10974 10977 10980 10983 10987 10991 10993 10993 10994 10995 10996 10998 11000 11002 11003 11005 11006 11008 11009 11009 11009 11010 11010 11010 11011 11011 11011 11011 11010 11010
10890 10887 10885 10883 10881 10879 10877 10875 10874 10872 10871 10870 10869 10868 10868 10868 10867 10868 10867 10867 10867 10866 10867 10867 10868 10868 10870 10871 10872 10872 10873 10876 10879 10881 10881 10883 10886 10890 10893 10895 10897 10901 10905 10910 10914 10917 10922 10926 10930 10934 10938 10942 10947 10951 10956 10960 10963 10968 10971 10974 10976 10979 10983 10988 10990 10990 10990 10992 10994 10996 10998 11000 11002 11003 11005 11007 11008 11008 11009 11010 11010 11010 11011 11011 11011 11011 11011 11010
10886 10883 10881 10879 10876 10874 10872 10871 10869 10867 10866 10865 10864 10863 10863 10863 10862 10862 10862 10861 10861 10861 10861 10861 10861 10861 10863 10864 10864 10865 10866 10867 10871 10874 10875 10875 10878 10882 10886 10888 10892 10896 10900 10905 10908 10911 10917 10920 10924 10930 10934 10936 10941 10946 10952 10956 10960 10964 10968 10971 10973 10976 10980 10984 10987 10987 10989 10990 10993 10995 10997 10999 11000 11001 11003 11005 11007 11007 11008 11010 11010 11010 11011 11011 11011 11011 11011 11011
10882 10879 10877 10874 10872 10870 10868 10866 10864 10863 10861 10860 10859 10859 10858 10858 10858 10857 10856 10856 10856 10855 10855 10854 10853 10854 10856 10857 10857 10857 10858 10860 10862 10866 10868 10868 10870 10873 10877 10881 10885 10890 10895 10898 10901 10905 10910 10915 10920 10924 10926 10928 10935 10942 10947 10951 10955 10959 10963 10966 10969 10972 10976 10981 10984 10986 10988 10990 10992 10994 10995 10997 10998 11000 11001 11004 11006 11006 11007 11009 11010 11010 11011 11011 11012 11012 11012 11011
10878 10875 10873 10870 10868 10866 10864 10862 10860 10858 10857 10856 10855 10854 10854 10853 10853 10853 10852 10851 10851 10850 10849 10848 10847 10846 10848 10849 10848 10849 10849 10851 10854 10857 10859 10860 10862 10864 10869 10874 10878 10883 10888 10891 10894 10898 10904 10911 10914 10915 10917 10924 10931 10936 10941 10945 10950 10954 10958 10962 10965 10969 10973 10977 10981 10984 10986 10988 10990 10992 10993 10995 10997 10998 11000 11003 11004 11005 11006 11008 11009 11010 11010 11011 11012 11012 11012 11012
10874 10872 10869 10866 10864 10862 10859 10857 10855 10854 10852 10851 10850 10850 10849 10849 10849 10848 10847 10846 10845 10844 10842 10841 10839 10839 10840 10840 10839 10839 10839 10841 10844 10847 10850 10852 10853 10856 10860 10865 10870 10875 10878 10883 10888 10892 10899 10905 10906 10906 10912 10921 10927 10930 10935 10939 10944 10949 10954 10958 10961 10966 10970 10974 10978 10981 10983 10985 10987 10989 10991 10993 10996 10998 10999 11001 11003 11003 11004 11006 11008 11009 11009 11011 11011 11012 11012 11012
10870 10868 10865 10863 10860 10858 10855 10853 10851 10850 10848 10847 10846 10846 10845 10845 10844 10844 10842 10841 10839 10837 10835 10833 10831 10830 10830 10829 10829 10828 10827 10829 10832 10835 10839 10841 10843 10846 10850 10856 10860 10864 10870 10877 10882 10887 10893 10896 10896 10899 10907 10916 10921 10924 10929 10934 10939 10944 10949 10953 10958 10962 10967 10971 10975 10978 10979 10981 10984 10987 10989 10991 10994 10997 10998 11000 11002 11002 11003 11005 11006 11008 11008 11010 11011 11011 11012 11012
10866 10864 10862 10859 10856 10854 10851 10849 10847 10846 10844 10843 10842 10842 10841 10841 10840 10839 10837 10835 10832 10830 10827 10824 10821 10819 10818 10816 10816 10814 10814 10816 10818 10821 10826 10829 10832 10835 10839 10844 10848 10855 10863 10870 10875 10880 10883 10883 10886 10893 10901 10909 10914 10917 10923 10928 10932 10938 10943 10949 10954 10959 10963 10968 10971 10972 10974 10978 10982 10985 10987 10990 10992 10995 10997 10999 11000 11001 11002 11003 11005 11006 11007 11009 11010 11011 11011 11012
10862 10860 10858 10855 10852 10850 10848 10845 10843 10842 10841 10839 10838 10837 10837 10836 10835 10833 10831 10828 10826 10822 10819 10815 10811 10808 10805 10803 10802 10801 10801 10802 10804 10807 10812 10816 10820 10823 10826 10831 10838 10848 10855 10861 10865 10869 10871 10873 10881 10890 10896 10901 10906 10911 10917 10921 10926 10932 10939 10945 10950 10954 10959 10963 10965 10965 10969 10976 10980 10982 10985 10987 10990 10992 10994 10997 10999 11000 11001 11002 11004 11005 11006 11008 11009 11010 11011 11011
10859 10857 10854 10851 10849 10847 10844 10842 10840 10838 10837 10835 10834 10833 10832 10831 10830 10828 10825 10822 10818 10814 10810 10805 10800 10795 10792 10789 10788 10787 10787 10788 10790 10793 10798 10802 10807 10810 10815 10821 10829 10838 10844 10849 10854 10858 10862 10869 10878 10886 10890 10895 10901 10906 10911 10914 10920 10927 10934 10940 10945 10949 10954 10958 10960 10962 10967 10973 10977 10979 10982 10984 10987 10990 10992 10994 10997 10999 11000 11001 11002 11004 11005 11007 11008 11009 11010 11010
10855 10853 10851 10848 10846 10843 10841 10838 10836 10835 10833 10832 10830 10829 10827 10826 10824 10822 10819 10815 10810 10805 10800 10795 10789 10784 10780 10777 10774 10773 10773 10774 10775 10778 10783 10788 10793 10799 10804 10810 10817 10825 10832 10839 10844 10850 10857 10864 10871 10878 10884 10889 10895 10899 10905 10910 10915 10922 10929 10934 10938 10944 10949 10952 10956 10960 10965 10970 10973 10976 10979 10982 10984 10987 10990 10992 10995 10997 10999 11000 11000 11002 11004 11006 11007 11008 11009 11009
10851 10849 10847 10845 10842 10840 10838 10835 10834 10832 10830 10828 10826 10824 10822 10820 10818 10815 10811 10807 10802 10796 10791 10785 10779 10774 10769 10765 10762 10761 10760 10760 10762 10764 10769 10774 10780 10787 10792 10798 10805 10814 10823 10832 10838 10844 10850 10856 10863 10871 10877 10883 10890 10894 10898 10903 10909 10916 10922 10927 10932 10939 10944 10948 10953 10958 10962 10966 10970 10973 10976 10979 10981 10985 10988 10990 10993 10995 10997 10998 10999 11000 11002 11005 11006 11007 11009 11009
10847 10846 10844 10841 10839 10837 10834 10832 10831 10829 10827 10825 10823 10820 10818 10815 10812 10809 10805 10800 10793 10787 10781 10775 10769 10763 10759 10755 10752 10751 10749 10749 10750 10753 10756 10761 10767 10774 10780 10787 10796 10805 10815 10823 10828 10834 10841 10849 10856 10863 10870 10878 10883 10884 10889 10896 10902 10908 10916 10922 10928 10935 10941 10946 10950 10954 10958 10963 10967 10970 10973 10976 10978 10982 10985 10988 10990 10992 10994 10996 10998 10999 11001 11003 11005 11006 11008 11008
10843 10842 10840 10838 10836 10833 10831 10829 10828 10826 10824 10822 10819 10817 10814 10811 10808 10804 10800 10794 10788 10780 10773 10767 10761 10756 10750 10747 10744 10742 10741 10741 10742 10743 10746 10750 10756 10762 10769 10777 10787 10796 10804 10810 10816 10825 10832 10839 10847 10855 10865 10872 10873 10874 10881 10888 10894 10902 10911 10918 10924 10932 10938 10941 10946 10951 10955 10960 10964 10967 10970 10973 10976 10979 10982 10985 10987 10989 10991 10994 10996 10998 11000 11001 11003 11005 11006 11007
10840 10838 10836 10834 10832 10830 10828 10826 10825 10823 10821 10819 10816 10813 10811 10807 10803 10799 10794 10789 10783 10775 10768 10761 10755 10750 10745 10741 10738 10736 10735 10734 10735 10736 10738 10741 10746 10752 10760 10768 10777 10785 10791 10799 10808 10815 10822 10829 10837 10848 10859 10864 10866 10869 10875 10881 10889 10899 10907 10912 10921 10929 10932 10938 10945 10949 10952 10955 10959 10963 10967 10971 10974 10976 10979 10982 10985 10987 10989 10991 10993 10995 10997 10999 11001 11002 11004 11006
10836 10835 10833 10831 10829 10827 10825 10823 10822 10820 10818 10816 10813 10810 10807 10803 10799 10794 10789 10784 10778 10771 10763 10756 10750 10745 10740 10737 10734 10731 10729 10728 10729 10729 10731 10734 10738 10743 10749 10757 10765 10772 10780 10789 10797 10803 10812 10821 10831 10841 10849 10854 10859 10864 10869 10878 10887 10895 10901 10908 10917 10923 10926 10933 10938 10938 10942 10949 10954 10959 10964 10968 10971 10972 10975 10979 10982 10984 10987 10988 10990 10992 10994 10997 10999 11001 11003 11004
10832 10831 10829 10827 10826 10823 10822 10820 10818 10817 10815 10813 10811 10807 10804 10800 10795 10790 10785 10779 10772 10766 10759 10752 10746 10740 10736 10733 10730 10727 10725 10724 10724 10724 10726 10728 10731 10736 10741 10747 10755 10762 10770 10779 10788 10797 10806 10815 10825 10833 10839 10845 10851 10857 10865 10874 10882 10889 10896 10904 10912 10916 10919 10923 10923 10925 10934 10943 10948 10955 10961 10964 10967 10968 10971 10975 10978 10981 10984 10986 10988 10990 10992 10995 10997 10999 11001 11003
10829 10828 10826 10824 10822 10820 10819 10817 10815 10814 10812 10810 10808 10804 10801 10798 10793 10787 10781 10775 10768 10761 10755 10749 10743 10737 10733 10730 10727 10724 10722 10720 10720 10721 10722 10724 10726 10730 10735 10740 10747 10755 10764 10774 10783 10793 10802 10811 10820 10827 10832 10838 10844 10852 10861 10869 10876 10883 10890 10898 10903 10908 10911 10913 10917 10923 10930 10936 10943 10951 10956 10960 10963 10964 10967 10971 10975 10978 10981 10983 10986 10988 10990 10992 10994 10996 10998 11000
10826 10824 10823 10821 10819 10817 10816 10814 10813 10811 10809 10807 10804 10801 10798 10795 10790 10784 10779 10773 10766 10759 10752 10746 10740 10735 10730 10727 10724 10722 10719 10718 10717 10718 10719 10720 10723 10726 10730 10735 10742 10750 10759 10768 10777 10787 10797 10806 10813 10819 10825 10832 10837 10844 10853 10860 10867 10874 10881 10889 10895 10900 10902 10906 10912 10919 10925 10932 10940 10946 10951 10955 10958 10960 10962 10967 10972 10975 10977 10980 10983 10985 10988 10990 10992 10994 10995 10997
10822 10821 10819 10818 10816 10814 10812 10811 10810 10808 10806 10804 10801 10798 10796 10792 10788 10782 10777 10772 10765 10758 10751 10745 10739 10734 10729 10725 10722 10720 10718 10716 10715 10716 10716 10718 10721 10724 10729 10735 10742 10749 10757 10765 10774 10784 10793 10800 10806 10813 10820 10825 10829 10837 10846 10854 10859 10866 10874 10882 10888 10891 10895 10900 10905 10913 10921 10929 10935 10941 10945 10949 10953 10956 10958 10963 10968 10971 10974 10977 10980 10983 10985 10988 10990 10991 10993 10994
10819 10817 10816 10814 10813 10811 10809 10808 10807 10805 10803 10801 10798 10796 10793 10790 10786 10781 10776 10770 10764 10758 10751 10745 10738 10733 10729 10725 10721 10718 10716 10714 10714 10714 10715 10716 10719 10721 10726 10732 10739 10748 10756 10765 10774 10782 10788 10795 10802 10809 10815 10817 10821 10831 10841 10847 10853 10861 10869 10875 10879 10883 10888 10894 10901 10909 10917 10924 10929 10934 10939 10944 10949 10952 10954 10958 10963 10967 10970 10974 10977 10980 10983 10986 10988 10990 10991 10993
10816 10814 10812 10811 10809 10807 10806 10805 10804 10802 10801 10798 10795 10793 10790 10787 10783 10779 10775 10769 10764 10758 10752 10745 10739 10733 10728 10724 10721 10718 10716 10714 10713 10713 10713 10715 10717 10719 10723 10728 10734 10743 10752 10762 10771 10778 10785 10791 10797 10803 10806 10808 10816 10828 10835 10842 10850 10857 10862 10867 10872 10877 10882 10890 10898 10905 10912 10918 10923 10927 10932 10939 10943 10946 10949 10953 10957 10962 10966 10970 10975 10978 10980 10983 10986 10988 10989 10991
10812 10810 10809 10807 10806 10804 10802 10801 10800 10799 10798 10796 10793 10790 10788 10785 10781 10777 10773 10768 10763 10758 10752 10746 10739 10733 10728 10724 10721 10718 10715 10714 10713 10712 10713 10714 10715 10718 10720 10725 10731 10738 10747 10756 10765 10773 10780 10786 10792 10797 10801 10807 10818 10827 10832 10840 10848 10853 10856 10861 10867 10871 10877 10886 10893 10900 10906 10910 10914 10919 10926 10933 10937 10941 10944 10948 10953 10958 10963 10967 10971 10974 10977 10980 10983 10985 10987 10988
10808 10807 10805 10803 10802 10801 10799 10798 10797 10796 10795 10793 10791 10788 10786 10783 10779 10776 10772 10768 10763 10758 10753 10747 10740 10734 10729 10724 10721 10718 10715 10714 10712 10711 10712 10712 10714 10716 10718 10722 10728 10734 10742 10749 10756 10764 10772 10780 10786 10792 10798 10806 10815 10821 10826 10834 10841 10845 10850 10856 10861 10866 10873 10881 10888 10894 10898 10901 10907 10914 10920 10927 10932 10937 10941 10946 10951 10956 10960 10964 10967 10970 10974 10977 10979 10982 10984 10985
10805 10803 10802 10800 10799 10798 10796 10795 10794 10793 10792 10790 10789 10786 10783 10780 10777 10774 10771 10767 10763 10758 10753 10748 10742 10736 10730 10725 10721 10718 10715 10714 10712 10711 10711 10711 10713 10715 10716 10719 10724 10731 10737 10743 10749 10757 10765 10772 10779 10786 10793 10800 10806 10811 10818 10826 10832 10837 10842 10847 10852 10858 10866 10873 10879 10885 10889 10895 10903 10910 10916 10923 10930 10936 10939 10944 10949 10953 10958 10962 10965 10968 10971 10973 10976 10978 10980 10982
10801 10800 10798 10797 10796 10795 10793 10791 10790 10790 10789 10788 10786 10784 10781 10778 10775 10773 10770 10766 10763 10758 10754 10748 10742 10737 10731 10726 10722 10719 10716 10714 10712 10711 10710 10710 10712 10713 10715 10718 10722 10727 10732 10738 10744 10751 10758 10765 10772 10779 10786 10792 10799 10805 10811 10817 10823 10828 10834 10840 10846 10853 10859 10865 10871 10878 10884 10891 10899 10905 10912 10921 10929 10934 10937 10941 10946 10951 10956 10959 10963 10965 10968 10970 10973 10975 10978 10980
10797 10796 10795 10794 10792 10791 10789 10788 10787 10787 10786 10785 10783 10781 10778 10776 10774 10771 10768 10765 10762 10758 10753 10748 10743 10738 10732 10727 10723 10719 10716 10714 10712 10711 10710 10710 10711 10712 10713 10716 10720 10724 10728 10733 10740 10747 10754 10760 10766 10773 10779 10786 10793 10799 10802 10806 10811 10818 10826 10837 10845 10852 10859 10864 10868 10875 10882 10889 10896 10902 10910 10918 10925 10930 10933 10937 10943 10948 10952 10955 10958 10961 10963 10966 10969 10972 10976 10979
10793 10793 10792 10790 10789 10787 10786 10785 10784 10783 10783 10782 10780 10779 10777 10774 10771 10769 10766 10763 10761 10757 10752 10748 10744 10739 10733 10728 10724 10720 10717 10714 10712 10711 10710 10710 10710 10710 10712 10714 10718 10722 10725 10729 10736 10743 10749 10755 10760 10767 10773 10779 10786 10790 10792 10796 10804 10813 10823 10833 10841 10849 10856 10860 10865 10875 10883 10889 10894 10900 10907 10915 10921 10926 10930 10934 10939 10943 10947 10950 10953 10957 10959 10962 10965 10969 10973 10976
10790 10789 10788 10786 10785 10784 10783 10782 10780 10780 10780 10779 10777 10776 10775 10772 10769 10767 10765 10762 10759 10756 10752 10748 10744 10740 10735 10730 10725 10721 10718 10715 10712 10711 10711 10710 10710 10709 10710 10712 10715 10719 10722 10726 10732 10738 10743 10748 10754 10759 10764 10770 10776 10780 10782 10789 10800 10810 10819 10827 10834 10841 10847 10852 10861 10872 10879 10884 10890 10896 10903 10911 10917 10922 10926 10931 10934 10938 10942 10945 10949 10952 10955 10958 10962 10966 10970 10972
10786 10785 10783 10782 10781 10781 10780 10779 10777 10776 10776 10775 10774 10773 10772 10770 10767 10766 10764 10761 10758 10755 10751 10747 10744 10740 10736 10731 10726 10722 10719 10716 10712 10710 10710 10710 10709 10708 10709 10711 10713 10716 10719 10722 10727 10732 10737 10742 10747 10751 10756 10762 10769 10772 10777 10786 10798 10808 10816 10823 10829 10835 10840 10847 10857 10865 10871 10877 10883 10889 10897 10905 10910 10915 10921 10926 10929 10932 10937 10941 10944 10947 10951 10954 10957 10960 10963 10966
10782 10781 10779 10777 10777 10777 10777 10775 10773 10773 10773 10772 10771 10770 10769 10767 10766 10764 10762 10760 10756 10753 10751 10747 10743 10740 10736 10732 10727 10723 10719 10716 10713 10711 10709 10709 10708 10708 10708 10710 10712 10714 10716 10719 10723 10727 10732 10737 10741 10745 10750 10756 10763 10768 10775 10786 10797 10806 10813 10818 10824 10829 10835 10843 10852 10857 10863 10870 10875 10882 10890 10897 10903 10908 10914 10918 10923 10926 10930 10934 10938 10941 10945 10949 10952 10955 10958 10960
10777 10777 10776 10774 10773 10773 10772 10771 10769 10769 10770 10769 10768 10767 10766 10765 10764 10762 10760 10758 10755 10752 10750 10746 10743 10739 10736 10732 10729 10724 10720 10717 10714 10711 10709 10708 10708 10707 10707 10709 10711 10712 10714 10717 10720 10723 10728 10732 10736 10741 10746 10752 10758 10764 10772 10783 10794 10801 10807 10813 10818 10823 10830 10839 10844 10849 10856 10862 10867 10875 10883 10888 10894 10900 10905 10909 10914 10918 10922 10926 10931 10935 10939 10943 10947 10950 10954 10956
10774 10773 10772 10770 10770 10769 10768 10767 10765 10765 10766 10766 10766 10765 10763 10762 10761 10760 10758 10756 10753 10750 10748 10746 10743 10739 10736 10733 10729 10725 10721 10717 10714 10711 10708 10707 10707 10706 10707 10707 10708 10709 10711 10714 10717 10720 10723 10726 10731 10736 10741 10747 10754 10761 10770 10781 10790 10795 10800 10806 10810 10815 10823 10831 10835 10841 10849 10854 10860 10869 10874 10877 10883 10889 10895 10900 10904 10909 10915 10919 10924 10929 10933 10937 10940 10944 10947 10950
10771 10769 10768 10767 10767 10766 10765 10763 10762 10762 10762 10762 10762 10762 10761 10759 10758 10757 10756 10754 10752 10749 10746 10744 10742 10739 10736 10733 10729 10725 10722 10718 10714 10711 10709 10706 10705 10706 10706 10706 10706 10706 10708 10710 10713 10717 10720 10723 10726 10730 10736 10742 10749 10757 10766 10776 10783 10788 10792 10798 10803 10807 10814 10822 10827 10834 10841 10846 10854 10862 10865 10868 10873 10878 10885 10890 10896 10902 10909 10914 10918 10922 10926 10930 10935 10938 10939 10941
10768 10767 10765 10764 10763 10762 10761 10760 10759 10758 10758 10758 10759 10759 10757 10756 10755 10754 10753 10752 10749 10747 10744 10742 10740 10738 10736 10733 10729 10726 10722 10719 10715 10712 10709 10706 10705 10704 10705 10705 10704 10704 10705 10706 10709 10712 10716 10719 10722 10726 10731 10737 10744 10752 10760 10768 10775 10780 10785 10791 10796 10800 10807 10814 10819 10825 10831 10838 10846 10853 10857 10860 10865 10870 10877 10882 10888 10895 10901 10907 10911 10915 10919 10924 10930 10932 10933 10935
10765 10764 10762 10761 10760 10759 10758 10756 10756 10756 10754 10755 10756 10755 10753 10753 10752 10751 10750 10749 10747 10745 10743 10740 10738 10736 10734 10732 10729 10726 10723 10719 10716 10713 10709 10706 10704 10703 10703 10704 10703 10702 10702 10704 10705 10707 10710 10715 10718 10721 10725 10731 10738 10745 10753 10760 10767 10773 10778 10784 10789 10794 10800 10806 10811 10817 10822 10829 10837 10844 10849 10853 10858 10863 10869 10875 10882 10887 10892 10898 10903 10907 10912 10917 10922 10925 10927 10929
10761 10760 10759 10758 10757 10756 10755 10753 10753 10752 10751 10751 10751 10750 10749 10748 10749 10749 10747 10746 10745 10743 10741 10739 10737 10735 10733 10730 10728 10725 10722 10719 10716 10713 10710 10707 10704 10702 10701 10702 10702 10701 10701 10702 10704 10705 10707 10711 10713 10716 10721 10728 10734 10740 10746 10752 10758 10765 10771 10777 10782 10787 10792 10798 10803 10809 10815 10822 10830 10836 10841 10845 10850 10855 10860 10867 10873 10878 10883 10889 10893 10898 10903 10908 10913 10917 10920 10923